Location: Unnamed
(51.5169°N, 0.1311°W)
Time: 21:33:08
(UTC+01:00)

Tiros 1 - Pass Details

Date: 14 August 2024
Orbit: 623 x 655 km, 48.4° (Epoch: 16 September)

Event Time Altitude Azimuth Distance (km) Brightness Sun altitude
Rises 06:00:03 0° 238° (WSW) 2,969 9.9 1.3°
Reaches altitude 10° 06:02:28 10° 232° (SW) 2,062 9.1 1.7°
Maximum altitude 06:06:58 44° 161° (SSE) 913 8.0 2.3°
Drops below altitude 10° 06:11:30 10° 90° (E) 2,067 11.4 3.0°
Sets 06:13:55 0° 84° (E) 2,978 12.7 3.3°
